THORAD DELTA 1 DEB, 8173

Orbit data source: Space-Track

THORAD DELTA 1 DEB, 8173 is space debris in SSO originally from a launch on Fri, 15 Nov 1974 UTC launched from the Air Force Western Test Range (AFWTR). Debris objects in space refer to the collection of defunct objects orbiting the Earth. Examples of debris include non-operational satellites, rocket bodies, and fragments generated from explosions, collisions, or faulty payload assembly.

Loading next visibility...
Identifier
8173, 1974-089AP
Orbit
SSO
Country
Flag of USUS
Related business
Manufacturer
Unknown
Mission
Spacecraft
Bus & Motor
Unknown
Mass
Unknown
Launch date (UTC)
1974-11-15 (51 years ago)
Launch vehicle
Unknown
Launch site
Air Force Western Test Range (AFWTR)
Object type
Payload
Rocket body
Debris
Shape & HBR
Unknown
Radar Cross Section
Small (<0.1 m²)

Expand to show TLE details & history
Last TLE update: 1 day ago

TLE from 1 day ago
0 THORAD DELTA 1 DEB
1 08173U 74089AP  25257.88816108  .00000024  00000-0  44637-3 0  9991
2 08173 101.9594 233.7200 0108776 291.6253 125.1050 12.51835342320546
Epoch: 2025-09-14T21:18Z
TLE epoch observation values (Epoch: 2025-09-14T21:18:57.117Z)
Latitude
55.91582°
Longitude
-98.269°
Altitude
1,515.56 km
Speed
7.09 km/s
True Right ascension
14h 22m 16s
True Declination
55° 46' 17"
Sunlit
Object was in daylight at epoch
Visualization orbit readout
Latitude
Unknown
Longitude
Unknown
Altitude
Unknown
Speed
Unknown
Apparent Right ascension
Unknown
Apparent Declination
Unknown
Sunlit
N/A
Visualization observer readout
Local Sidereal Time
17:56:29
Azimuth
Unknown
Elevation
Unknown
Doppler factor
Unknown
Orbital elements
Apogee altitude
1,539.583 km
Perigee altitude
1,369.185 km
Semi-major axis
7,832.521 km
Eccentricity
0.01088
Inclination
101.9594°
RAAN
233.72°
Arg. of periapsis
291.6253°
True anomaly
126.11678°
Mean anomaly
125.105°
Eccentric anomaly
125.61168°
Mean motion
3.13106 °/min
Orbital period
114.98 mins
BSTAR
0.00044637
Loading maneuver chart data...
Computing Atmospheric mass density...
Loading historical data...
Loading historical data...
Loading historical data...
Loading historical data...
Loading historical data...
Loading historical data...
Loading historical data...

Documentation

Showing up to 5 results
|